Flag for Russia Weather past 2 weeks in Volgograd, Russia

Now
30 °F

Ice fog.


Feels Like: 19 °F
Forecast: 26 / 34 °F
Wind: 15 mph from Southeast

Location: Volgograd Airport

Current Time: Feb 28, 2015 at 2:43:07 AM

Latest Report: Feb 28, 2015 at 2:00 AM


Visibility: 2 mi

Pressure: 30.30 "Hg

Humidity: 100%

Dew point: 30 °F

Location of VolgogradLocation

Historic Weather in Volgograd — Graph

°F

Volgograd temperature yesterday

Maximum temperature yesterday: 34 °F (at 12:30 PM)
Minimum temperature yesterday: 30 °F (at 3:30 AM)
Average temperature yesterday: 32 °F

Past Weeks' High & Low Weather Summary

 TemperatureHumidityPressure
High45 °F (Feb 24, 2:00 PM)100% (Feb 14, 2:00 AM)30.60 "Hg (Feb 14, 2:00 AM)
Low-4 °F (Feb 18, 5:00 AM)34% (Feb 24, 3:30 PM)29.95 "Hg (Feb 19, 5:00 PM)
Average22 °F79%30.32 "Hg
* Reported Feb 13 1:00 AM — Feb 28 1:30 AM, Volgograd, Weather by CustomWeather, © 2015

Note: Actual official high and low records may vary slightly from our data, if they occured in-between our weather recording intervals... More about our weather records

Advertising

Volgograd weather history for previous 24 hours

 ConditionsComfort  
Time TempWeatherWind HumidityBarometerVisibility
1:30 AM
Sat, Feb 28
30 °FIce fog.13 mph100%30.30 "Hg2 mi
1:00 AM30 °FIce fog.15 mph100%30.33 "Hg1 mi
12:30 AM30 °FIce fog.10 mph100%30.33 "Hg1 mi
12:00 AM30 °FIce fog.10 mph100%30.33 "Hg1 mi
11:30 PM
Fri, Feb 27
30 °FIce fog.10 mph100%30.33 "Hg1 mi
11:00 PM30 °FLight freezing rain. Ice fog.8 mph100%30.36 "Hg1 mi
10:30 PM30 °FLight freezing rain. Ice fog.10 mph100%30.36 "Hg1 mi
10:00 PM30 °FLight freezing rain. Ice fog.13 mph100%30.39 "Hg1 mi
9:30 PM30 °FLight freezing rain. Ice fog.10 mph100%30.39 "Hg1 mi
9:00 PM30 °FLight freezing rain. Ice fog.13 mph100%30.39 "Hg1 mi
8:30 PM32 °FLight freezing rain. Ice fog.13 mph100%30.39 "Hg1 mi
8:00 PM32 °FDrizzle. Ice fog.13 mph100%30.39 "Hg2 mi
7:30 PM32 °FDrizzle. Ice fog.13 mph100%30.39 "Hg2 mi
7:00 PM32 °FDrizzle. Ice fog.13 mph100%30.39 "Hg2 mi
6:30 PM32 °FDrizzle. Ice fog.10 mph100%30.42 "Hg2 mi
6:00 PM32 °FDrizzle. Ice fog.10 mph100%30.42 "Hg2 mi
5:30 PM34 °FDrizzle. Fog.13 mph93%30.42 "Hg2 mi
5:00 PM34 °FDrizzle. Fog.8 mph100%30.42 "Hg2 mi
4:30 PM34 °FDrizzle. Fog.10 mph100%30.42 "Hg1 mi
4:00 PM34 °FDrizzle. Fog.10 mph100%30.42 "Hg1 mi
3:30 PM34 °FDrizzle. Fog.10 mph100%30.42 "Hg1 mi
3:00 PM34 °FFog.10 mph100%30.42 "Hg2 mi
2:30 PM34 °FFog.10 mph100%30.42 "Hg2 mi
2:00 PM34 °FFog.10 mph100%30.42 "Hg2 mi
1:30 PM34 °FFog.10 mph100%30.42 "Hg1 mi
1:00 PM34 °FFog.13 mph100%30.45 "Hg1 mi
12:30 PM34 °FFog.13 mph100%30.45 "Hg0 mi
12:00 PM32 °FFog.15 mph100%30.45 "Hg0 mi
11:30 AM32 °FFog.15 mph100%30.45 "Hg0 mi
11:00 AM32 °FDrizzle. Fog.13 mph100%30.45 "Hg0 mi
10:30 AM32 °FLight freezing rain. Ice fog.13 mph100%30.45 "Hg0 mi
10:00 AM32 °FLight freezing rain. Ice fog.15 mph100%30.48 "Hg0 mi
9:30 AM32 °FLight freezing rain. Ice fog.13 mph100%30.48 "Hg0 mi
9:00 AM30 °FLight freezing rain. Ice fog.13 mph100%30.48 "Hg0 mi
8:30 AM30 °FLight freezing rain. Ice fog.13 mph100%30.48 "Hg1 mi
8:00 AM30 °FLight freezing rain. Ice fog.13 mph100%30.48 "Hg0 mi
7:30 AM30 °FLight freezing rain. Ice fog.13 mph100%30.48 "Hg0 mi
6:30 AM30 °FLight freezing rain. Ice fog.10 mph100%30.48 "Hg0 mi
5:30 AM30 °FLight freezing rain. Ice fog.13 mph100%30.48 "Hg1 mi
5:00 AM30 °FLight freezing rain. Ice fog.13 mph100%30.48 "Hg1 mi
4:30 AM30 °FLight freezing rain. Ice fog.15 mph100%30.48 "Hg1 mi
4:00 AM30 °FIce fog.13 mph100%30.48 "Hg1 mi
3:30 AM30 °FLight snow. Ice fog.15 mph100%30.48 "Hg1 mi
3:00 AM32 °FLight snow. Ice fog.15 mph93%30.48 "Hg2 mi
2:30 AM32 °FLight snow. Ice fog.13 mph93%30.48 "Hg2 mi
2:00 AM32 °FSnow. Low clouds.10 mph93%30.48 "Hg1 mi
Weather by CustomWeather, © 2015

See weather overviewHow to use our weather pages